カタログに戻る

STARLINK-35434

運用中通信VLEO
NORAD 66246·PAYLOAD·🇺🇸 United States

打ち上げ Oct 29, 2025 から Cape Canaveral Space Force Station

Loading…

次のパス (今後24時間)

TLE

最新Source: CelesTrak SupGP

元期: Sep 15, 2026, 03:23 UTC

1 66246C 25245N   26258.14145833  .00026998  00000+0  86814-3 0  2585
2 66246  53.1574 122.5785 0001278  81.2039 191.4884 15.31690418    16

AllMySatでSTARLINK-35434をリアルタイム追跡

Download on the App Store